Wind_Gust
6 6 5 4 4 5 5 6 5 7 8 9 9 10 12 10 9 9 9 9 9 9 10 10 10 10 11 10 10 12 12 12 13 13 15 17 18 18 19 17 17 19
7 6 5 4 4 4 4 4 5 7 7 8 9 9 9 10 11 10 10 10 11 12 11 11 11 11 11 12 10 11 12 11 13 13 16 18 18 17 19 17 18 18
6 5 6 5 5 5 6 5 5 5 6 8 9 9 11 9 8 8 11 12 13 12 11 10 11 12 12 12 11 11 11 12 14 13 14 16 17 19 19 19 18 17
6 7 7 5 5 5 5 5 5 7 7 8 8 9 10 10 9 11 11 14 12 13 13 12 12 12 13 14 12 12 12 14 14 14 15 15 15 18 19 19 21 21
8 7 6 5 5 5 5 6 7 7 9 8 8 9 9 7 8 10 12 12 11 11 12 13 14 14 13 14 14 12 10 11 12 14 15 16 16 16 18 20 20 21
7 7 7 7 7 6 5 7 10 11 10 8 9 8 7 9 10 11 11 12 11 12 13 13 13 13 14 15 15 14 15 14 14 15 17 17 16 14 15 18 20 21
8 6 6 7 7 6 6 8 9 8 8 8 9 8 8 10 11 12 13 11 12 13 14 15 16 18 17 16 15 17 18 18 18 18 16 15 15 16 17 18 20 22
8 6 7 6 7 7 8 9 7 6 7 9 8 10 10 12 13 11 9 11 12 14 15 16 17 18 17 15 14 15 18 20 18 17 17 17 16 15 18 21 20 20
8 6 6 6 8 9 9 6 6 8 9 10 10 10 10 12 12 12 13 13 14 15 15 15 16 15 15 14 14 11 14 16 19 19 18 19 20 20 20 20 21 23
9 8 8 7 9 9 6 5 7 8 9 10 11 9 13 12 12 14 14 15 16 18 18 17 17 15 13 11 14 15 14 14 14 17 21 21 22 22 23 23 22 22
9 8 8 7 9 7 5 7 8 8 8 11 10 11 11 11 14 14 15 16 17 18 19 18 18 15 14 14 13 13 17 18 16 15 17 19 21 23 20 21 21 20
9 8 8 8 7 6 6 7 8 9 10 10 12 13 14 14 14 16 19 20 21 20 19 18 17 17 17 17 15 13 15 17 18 17 17 19 19 19 21 20 20 22
9 9 9 7 7 7 7 8 7 6 10 14 13 14 16 17 18 20 20 21 22 21 20 18 16 15 15 16 15 16 17 16 17 18 19 18 18 21 22 23 23 23
10 9 8 8 7 9 6 6 6 7 9 10 12 13 13 15 16 18 18 19 19 19 18 18 17 17 16 16 16 15 14 14 15 16 17 18 18 18 19 21 23 23
8 7 8 9 10 9 6 6 9 10 10 11 12 10 9 13 15 18 18 19 19 18 19 19 18 17 15 12 13 13 14 14 15 15 16 17 18 19 19 21 22 22
9 7 8 8 7 4 5 9 10 10 11 12 10 11 13 13 14 15 16 18 20 20 19 16 16 14 14 15 11 12 12 13 15 16 16 17 19 20 21 20 23 24
8 9 5 8 5 7 10 11 10 12 13 10 11 12 12 15 15 17 16 17 20 19 18 15 15 15 13 12 9 10 12 13 14 15 16 17 19 22 25 28 24 25
8 6 9 8 8 10 9 9 10 11 11 10 10 10 11 13 15 17 16 15 15 17 15 16 15 11 11 6 7 6 8 11 13 15 16 17 17 21 26 26 28 25
7 9 9 9 8 11 10 11 12 10 11 11 10 10 11 13 15 16 15 15 16 19 17 16 13 11 9 8 7 6 7 10 14 16 18 18 19 21 25 27 27 28
9 9 8 8 9 10 11 14 11 10 10 8 10 12 12 12 14 15 15 16 17 18 18 16 16 12 11 11 11 10 11 10 14 17 19 22 24 25 25 24 24 25
8 10 11 10 10 9 11 9 9 12 12 11 10 10 12 14 15 15 15 15 16 15 16 18 15 13 11 9 9 9 12 11 15 18 22 23 23 23 24 25 24 26
11 12 11 10 10 11 12 12 11 11 11 9 8 8 10 13 14 14 16 17 17 16 17 17 17 12 11 9 8 9 11 15 17 19 20 21 23 21 22 23 23 24
13 14 12 11 10 10 11 11 11 9 8 7 8 9 10 12 12 13 14 15 18 18 17 17 16 13 11 9 10 12 12 16 18 20 20 21 22 21 22 22 23 22
12 13 13 11 9 10 11 10 10 8 7 6 8 10 11 11 12 14 13 13 13 14 16 18 18 16 15 12 12 12 15 17 18 19 20 20 21 20 20 21 22 27
12 12 12 11 9 8 8 9 9 7 6 7 5 8 10 12 14 15 14 12 11 14 17 19 19 17 13 12 12 13 16 16 18 19 20 19 19 21 19 20 20 20
11 12 10 10 9 8 6 7 8 3 6 7 5 8 11 11 12 13 14 12 11 14 15 15 14 14 16 12 13 13 14 20 17 18 19 19 18 20 21 19 19 20
Wind_Speed
3 3 3 3 2 2 1 1 1 1 2 2 1 3 3 3 3 3 3 3 3 3 3 4 4 4 4 3 3 3 3 3 4 3 4 5 5 6 7 6 5 4
4 3 2 2 1 1 0 1 1 1 1 2 3 3 4 3 4 3 3 3 3 4 4 4 4 3 3 3 3 3 4 3 4 2 3 4 4 4 6 6 6 6
4 3 3 3 3 1 1 1 1 1 1 2 3 3 4 3 4 4 4 4 4 4 4 4 3 3 3 3 3 3 3 3 4 3 3 4 3 4 5 5 5 6
4 4 4 3 2 2 2 1 0 1 1 2 3 3 3 4 3 4 4 4 4 5 5 4 4 3 3 3 3 3 3 3 3 3 4 4 3 3 4 3 4 5
5 4 4 3 3 3 3 2 1 2 2 2 3 3 3 3 3 3 4 4 4 5 5 6 5 5 4 4 4 4 4 4 4 4 4 4 3 3 3 4 4 5
3 4 4 4 4 3 3 2 2 2 2 3 3 3 3 2 2 3 4 5 6 7 7 8 8 8 8 8 8 6 5 5 5 5 4 3 3 3 2 3 4 5
4 4 4 3 3 3 3 3 1 1 2 3 2 3 2 3 3 5 5 4 5 6 6 7 8 8 8 8 8 7 6 5 3 4 4 5 4 4 4 3 3 3
4 4 4 3 4 3 3 2 2 2 3 2 3 2 3 3 4 3 3 4 4 4 5 5 6 7 7 7 7 6 6 5 6 6 5 4 3 3 4 4 4 4
5 4 4 4 4 3 3 2 2 3 3 4 1 3 3 4 3 3 3 3 3 3 4 4 5 4 5 5 5 5 5 5 5 4 4 5 5 5 6 4 4 4
6 5 5 5 4 4 3 3 3 4 3 2 3 3 4 3 3 3 3 3 3 3 3 3 4 4 5 4 3 3 4 4 4 4 3 3 3 3 4 5 6 7
6 5 5 5 4 3 3 2 4 1 2 4 3 3 3 3 2 2 3 3 4 3 4 4 3 3 4 4 3 3 4 3 3 3 3 3 3 3 5 4 4 4
6 5 5 5 4 4 3 3 1 3 4 3 3 4 3 3 3 3 3 3 3 4 4 3 3 3 3 2 2 3 3 3 4 4 4 4 4 4 3 3 4 5
6 6 6 4 4 4 3 1 3 4 3 4 4 4 4 4 3 3 3 3 3 3 3 3 3 3 2 2 1 1 1 2 2 3 4 5 5 6 5 5 5 5
6 5 4 5 4 2 1 2 4 4 6 5 4 5 4 3 3 3 2 3 2 3 3 3 4 2 1 2 2 2 3 3 3 3 3 4 5 6 6 6 6 6
5 4 5 4 3 2 2 4 6 6 5 4 4 4 3 3 3 3 2 1 1 2 3 3 4 1 0 1 2 2 3 3 4 5 6 7 7 6 6 6 7 7
6 5 4 4 1 1 3 6 6 5 5 4 4 3 3 3 3 1 1 0 0 2 2 3 3 1 1 4 5 3 3 3 4 5 6 7 8 9 8 7 7 7
5 5 4 2 3 5 6 7 6 4 5 4 4 3 3 2 2 1 1 0 1 1 3 3 3 1 3 1 3 7 5 5 6 7 6 7 8 9 9 10 9 8
5 4 4 4 5 6 6 6 5 5 5 4 4 3 2 2 1 0 1 1 1 1 1 1 2 5 4 4 3 4 6 5 5 6 7 8 8 9 9 9 10 9
4 5 6 5 5 7 6 5 5 5 5 4 4 3 3 1 0 1 0 0 0 1 1 2 3 3 5 3 3 2 4 5 4 5 6 7 8 9 9 9 9 9
5 5 5 5 6 6 5 5 5 5 4 4 4 3 2 1 0 0 1 1 2 2 2 1 3 2 4 3 1 4 6 6 4 5 6 7 8 8 8 9 10 10
5 6 7 6 6 5 5 4 4 4 4 4 4 3 2 2 2 1 1 2 3 2 2 2 1 3 3 2 3 6 8 6 4 6 6 7 7 8 8 8 9 9
7 7 7 6 6 5 5 4 4 5 5 3 2 2 2 3 1 0 2 2 2 3 1 1 2 3 3 1 4 7 8 5 5 6 7 7 7 7 7 7 8 8
8 8 8 7 6 6 5 4 4 3 3 2 1 2 4 2 0 2 2 2 3 1 1 2 2 4 3 4 5 8 6 4 5 5 6 7 7 7 7 7 7 8
8 8 8 7 6 6 5 4 4 4 4 3 3 4 2 1 1 2 3 2 2 2 2 1 3 3 6 5 6 8 7 4 4 5 6 7 7 7 6 6 8 15
7 7 8 7 6 5 5 4 4 4 3 3 3 4 2 1 0 2 2 2 2 2 6 5 2 4 6 5 8 9 7 4 5 5 6 5 6 7 6 5 6 8
7 7 7 7 6 4 4 4 3 2 3 4 4 3 2 0 1 2 2 1 2 3 3 2 3 2 2 7 9 9 10 6 5 5 6 7 6 6 6 6 5 6
Wind_Direction
191 160 151 145 180 194 207 230 241 285 316 308 299 286 271 274 284 282 279 283 285 295 300 306 310 311 309 315 319 329 322 318 321 315 312 314 308 302 295 288 279 257
202 177 168 148 172 270 265 199 241 201 267 268 271 279 289 286 284 277 279 281 289 285 288 293 294 290 294 302 314 329 329 334 329 327 336 331 316 311 300 292 283 279
188 177 160 161 196 219 240 240 197 207 212 258 279 294 291 292 294 308 300 291 290 291 291 288 290 288 284 289 304 315 319 320 318 319 325 315 310 310 297 292 289 280
195 187 183 195 173 185 206 154 50 264 263 320 302 304 299 289 305 305 309 306 307 305 303 302 289 279 270 275 279 277 273 278 271 284 298 303 305 304 297 296 294 299
193 199 197 185 184 177 152 134 194 242 267 275 318 290 292 307 315 317 313 313 316 314 314 309 307 298 294 290 275 272 268 269 272 275 283 291 295 313 320 338 334 332
199 189 196 173 191 147 144 172 219 252 293 314 271 270 274 290 292 292 324 346 350 355 357 357 352 345 342 332 323 304 294 303 311 320 317 313 325 336 355 11 7 359
191 195 194 188 163 150 169 218 259 275 256 239 259 276 264 293 336 7 22 28 28 26 21 15 11 8 6 2 1 353 347 342 352 15 13 8 2 3 4 6 15 357
190 194 181 167 166 190 215 244 267 261 235 234 226 283 19 36 72 72 57 39 33 25 24 21 14 12 7 5 359 358 1 10 21 25 27 15 7 356 355 359 346 348
180 182 172 177 171 199 224 243 253 246 243 230 1 60 124 103 94 90 77 63 56 38 28 20 14 9 6 2 357 8 9 14 17 17 10 359 353 346 345 345 345 340
181 180 173 178 182 207 217 234 231 234 257 64 113 135 88 73 76 78 67 60 54 32 35 23 17 9 0 357 4 14 11 3 359 360 354 347 341 338 337 347 340 332
181 176 177 188 195 210 228 227 224 226 98 138 136 85 76 88 60 63 61 51 38 22 16 16 8 2 355 355 10 9 3 356 348 351 344 345 340 335 336 327 318 309
178 178 183 187 199 219 218 215 171 125 150 128 94 95 96 76 71 46 52 44 31 21 13 352 346 344 9 18 8 8 357 350 347 344 342 333 330 319 312 310 307 304
176 184 185 186 204 214 211 167 124 153 111 84 90 101 94 73 56 55 36 47 24 16 355 334 324 340 36 20 352 348 337 335 331 327 323 328 320 315 310 305 301 299
182 187 179 199 210 200 103 127 139 91 86 98 97 94 91 97 90 79 42 38 4 360 334 331 323 343 52 347 316 313 332 320 318 312 309 301 298 298 302 303 303 303
181 184 195 194 194 117 133 125 94 100 104 105 104 104 107 110 118 92 77 21 337 312 321 319 311 303 237 278 295 320 321 327 328 325 322 319 313 308 305 305 307 307
179 181 187 193 128 105 105 100 107 117 119 113 111 117 126 116 89 109 105 169 303 302 294 305 303 274 31 16 6 347 326 329 324 325 322 317 316 314 309 305 301 298
170 188 170 132 111 106 102 112 120 122 117 119 125 129 118 116 114 114 200 220 244 294 323 319 311 42 107 41 21 358 354 339 332 323 317 314 313 312 311 312 308 301
172 147 114 110 120 106 113 126 131 129 129 132 125 117 133 124 139 209 228 253 314 353 330 303 334 77 86 81 64 28 1 340 318 311 313 313 313 309 305 304 305 306
142 141 124 131 115 118 130 133 134 127 129 129 143 165 139 124 233 255 254 312 43 288 266 307 58 120 110 111 88 1 336 320 303 303 305 306 304 302 302 302 306 308
155 128 123 117 117 126 127 129 126 144 156 162 155 144 137 165 238 91 36 347 277 283 311 25 94 134 132 125 64 344 325 316 307 304 301 294 295 297 300 307 310 313
133 113 114 121 125 129 128 127 138 146 156 169 158 163 163 123 95 44 329 283 305 343 40 72 163 179 146 99 8 340 325 308 313 309 299 297 300 304 305 306 308 305
124 120 122 128 132 129 129 141 151 161 166 190 189 207 78 70 34 18 282 311 24 70 69 322 269 147 101 71 360 351 338 338 321 314 308 307 305 304 303 301 299 299
133 133 139 143 145 143 152 165 161 163 197 192 164 89 85 88 248 261 305 43 78 61 353 281 345 93 95 52 26 358 341 326 322 312 308 306 300 302 302 301 299 294
143 144 148 155 159 161 168 171 163 145 174 189 129 114 107 222 241 305 18 89 74 347 285 348 60 76 57 42 10 353 352 337 315 303 298 303 304 301 299 300 298 311
149 149 152 156 162 173 167 160 169 163 175 122 126 132 165 232 297 48 47 67 36 345 31 67 89 75 59 21 4 357 351 329 315 301 299 298 308 306 305 301 295 309
152 153 157 158 168 182 183 164 156 124 126 123 138 143 183 12 48 79 75 50 6 39 44 42 71 71 52 15 7 354 347 342 313 309 311 311 307 313 316 315 311 302